Powrót do katalogu

STARLINK-34545

AktywnyŁącznośćVLEO
NORAD 65105·PAYLOAD·🇺🇸 United States

Wystrzelony Aug 4, 2025 z Cape Canaveral Space Force Station

Loading…

Następne Przeloty (najbliższe 24 godziny)

TLE

ŚwieżeSource: CelesTrak SupGP

Epoka: Sep 14, 2026, 20:40 UTC

1 65105C 25167AD  26257.86159722  .00045750  00000+0  13514-2 0  2573
2 65105  53.1576 220.2393 0001414  96.0885 193.4913 15.34374172    11

Śledź STARLINK-34545 w czasie rzeczywistym z AllMySat

Download on the App Store